Weather History for Beaufort MCAS, SC

Change the Weather History Date:

Friday, March 14, 2014

  Actual Average Record
Temperature  
Mean Temperature 49 °F -  
Max Temperature 66 °F 70 °F 84 °F (1985)
Min Temperature 34 °F 48 °F 27 °F (1960)
Degree Days  
Heating Degree Days 16    
Moisture  
Dew Point 35 °F    
Average Humidity 61    
Maximum Humidity 86    
Minimum Humidity 31    
Precipitation  
Precipitation 0.00 in - - ()
Sea Level Pressure  
Sea Level Pressure 30.28 in    
Wind  
Wind Speed 3 mph (South)    
Max Wind Speed 9 mph    
Max Gust Speed 20 mph    
Visibility 10 miles    
Events Fog    
Averages and records for this station are not official NWS values.
T = Trace of Precipitation, MM = Missing Value Source: NWS Daily Summary

Daily Weather History Graph

Daily Weather History Graph

Search for Another Location

Airport:

Trip Planner

Search our weather history database for the weather conditions in past years. The results will help you decide how hot, cold, wet, or windy it might be!

Date:

Astronomy

Mar. 14, 2014 Rise Set
Actual Time 7:34 AM EDT 7:30 PM EDT
Civil Twilight 7:09 AM EDT 7:54 PM EDT
Nautical Twilight 6:41 AM EDT 8:23 PM EDT
Astronomical Twilight 6:12 AM EDT 8:51 PM EDT
Moon 5:54 PM EDT (3/14) 6:08 AM EDT (3/14)
Length of Visible Light 12h 44m
Length of Day
11h 55m
Waxing Gibbous, 96% of the Moon is Illuminated
Mar 14
Waxing Gibbous
Mar 16
Full
Mar 23
Last Quarter
Mar 30
New
Apr 7
First Quarter

Hourly Weather History & Observations

Time (EDT) Temp. Windchill Dew Point Humidity Pressure Visibility Wind Dir Wind Speed Gust Speed Precip Events Conditions
12:56 AM 37.0 °F 34.5 °F 28.9 °F 73% 30.26 in 10.0 mi West 3.5 mph - N/A   Clear
1:56 AM 37.0 °F - 30.0 °F 76% 30.26 in 10.0 mi Calm Calm - N/A   Clear
2:56 AM 37.0 °F - 30.9 °F 79% 30.27 in 10.0 mi Calm Calm - N/A   Clear
3:56 AM 36.0 °F - 30.9 °F 82% 30.27 in 10.0 mi Calm Calm - N/A   Clear
4:56 AM 35.1 °F - 30.9 °F 85% 30.28 in 9.0 mi Calm Calm - N/A   Clear
5:56 AM 35.1 °F - 30.9 °F 85% 30.30 in 8.0 mi Calm Calm - N/A   Clear
6:56 AM 34.0 °F - 30.0 °F 85% 30.32 in 9.0 mi Calm Calm - N/A   Clear
7:56 AM 36.0 °F - 30.9 °F 82% 30.33 in 9.0 mi Calm Calm - N/A Fog Shallow Fog
8:13 AM 37.9 °F - 34.0 °F 86% 30.33 in 10.0 mi Calm Calm - N/A Fog Shallow Fog
8:56 AM 46.9 °F - 39.0 °F 74% 30.35 in 10.0 mi Calm Calm - N/A   Clear
9:56 AM 52.0 °F - 35.1 °F 53% 30.36 in 10.0 mi SE 3.5 mph - N/A   Clear
10:56 AM 57.9 °F - 32.0 °F 37% 30.37 in 10.0 mi South 6.9 mph - N/A   Clear
11:56 AM 60.1 °F - 30.0 °F 32% 30.37 in 10.0 mi SSE 3.5 mph - N/A   Clear
12:56 PM 61.0 °F - 30.0 °F 31% 30.37 in 10.0 mi SSE 8.1 mph - N/A   Clear
1:56 PM 63.0 °F - 36.0 °F 37% 30.34 in 10.0 mi South 8.1 mph 18.4 mph N/A   Clear
2:56 PM 64.0 °F - 37.9 °F 38% 30.30 in 10.0 mi South 9.2 mph 19.6 mph N/A   Clear
3:56 PM 64.9 °F - 39.9 °F 40% 30.26 in 10.0 mi South 6.9 mph 18.4 mph N/A   Clear
4:56 PM 64.9 °F - 39.9 °F 40% 30.24 in 10.0 mi South 9.2 mph 19.6 mph N/A   Partly Cloudy
5:56 PM 63.0 °F - 37.9 °F 40% 30.22 in 10.0 mi South 9.2 mph - N/A   Clear
6:56 PM 61.0 °F - 41.0 °F 48% 30.22 in 10.0 mi South 5.8 mph - N/A   Clear
7:56 PM 55.9 °F - 41.0 °F 57% 30.22 in 10.0 mi South 3.5 mph - N/A   Clear
8:56 PM 55.9 °F - 43.0 °F 62% 30.21 in 10.0 mi South 5.8 mph - N/A   Clear
9:56 PM 54.0 °F - 41.0 °F 62% 30.21 in 10.0 mi South 6.9 mph - N/A   Clear
10:56 PM 53.1 °F - 43.0 °F 69% 30.20 in 10.0 mi South 4.6 mph - N/A   Clear
11:56 PM 48.9 °F - 41.0 °F 74% 30.21 in 10.0 mi WSW 4.6 mph - N/A   Clear